Date,TemperatureHighF,TemperatureAvgF,TemperatureLowF,DewpointHighF,DewpointAvgF,DewpointLowF,HumidityHigh,HumidityAvg,HumidityLow,PressureMaxIn,PressureMinIn,WindSpeedMaxMPH,WindSpeedAvgMPH,GustSpeedMaxMPH,PrecipitationSumIn
2013-1-1,47,45,39,46,40,19,98,85,43,30.12,29.92,8,1,8,0.57
2013-1-2,45,41,38,44,40,36,98,95,86,30.11,29.87,7,1,8,0.57
2013-1-3,41,37,28,39,35,24,98,94,83,30.27,30.06,5,1,6,0.00
2013-1-4,48,33,25,26,21,15,87,63,31,30.36,30.24,8,2,8,0.00
2013-1-5,45,36,26,38,21,0,91,58,19,30.38,30.21,10,1,12,0.02
2013-1-6,54,43,33,41,34,24,92,72,43,30.22,30.03,11,2,12,0.01
2013-1-7,50,38,29,30,26,20,85,63,41,30.40,30.15,7,1,11,0.00
2013-1-8,50,41,31,47,36,26,96,81,65,30.42,30.34,7,1,7,0.00
2013-1-9,56,52,48,53,51,46,98,95,87,30.43,30.36,8,0,8,0.00
2013-1-10,62,55,50,52,50,49,97,85,68,30.44,30.25,9,1,9,0.18
2013-1-11,56,53,51,56,53,50,99,98,97,30.26,30.10,9,1,10,1.54
2013-1-12,67,59,55,62,57,54,99,94,77,30.13,30.04,10,1,10,0.05
2013-1-13,59,57,56,57,56,54,99,96,91,30.07,30.00,14,2,14,0.38
2013-1-14,59,57,56,58,57,56,99,99,98,30.06,29.98,13,1,15,1.96
2013-1-15,57,53,50,56,53,50,99,99,99,30.04,29.94,8,1,10,2.05
2013-1-16,56,52,49,56,51,49,100,98,93,29.96,29.88,10,1,10,0.58
2013-1-17,51,45,32,50,44,27,98,97,84,30.13,29.63,7,1,9,2.20
2013-1-18,47,36,28,30,24,19,87,65,43,30.50,30.13,7,1,8,0.00
2013-1-19,50,38,29,35,26,8,84,62,20,30.48,30.19,11,1,11,0.00
2013-1-20,56,43,35,35,25,16,65,50,31,30.19,30.06,11,2,14,0.00
2013-1-21,52,40,29,31,21,14,63,48,33,30.07,29.96,18,2,18,0.00
2013-1-22,36,28,20,14,9,2,58,46,25,30.24,29.94,20,2,23,0.00
2013-1-23,47,34,23,27,20,9,72,58,41,30.33,30.09,13,2,13,0.00
2013-1-24,47,36,22,32,17,-4,75,50,12,30.40,29.98,23,2,23,0.00
2013-1-25,43,26,18,42,21,5,97,81,54,30.41,30.14,11,1,12,0.14
2013-1-26,50,38,32,37,30,21,94,73,32,30.31,30.13,11,1,11,0.00
2013-1-27,43,35,27,34,30,25,94,82,66,30.48,30.31,7,1,8,0.00
2013-1-28,56,46,34,50,41,29,97,84,55,30.45,30.24,12,1,12,0.00
2013-1-29,63,54,48,55,49,36,98,84,53,30.25,29.98,11,1,11,0.44
2013-1-30,58,53,40,58,53,37,99,98,87,29.98,29.42,19,3,24,5.52
2013-1-31,40,32,26,38,24,19,94,71,50,30.07,29.47,16,2,17,0.02